Location: Livorno
(43.5500°N, 10.3170°E)
Time: 19:36:07
(UTC+01:00)

Envisat - Pass Details

Date: 03 November 2020
Orbit: 764 x 766 km, 98.1° (Epoch: 05 December)

Event Time Altitude Azimuth Distance (km) Brightness Sun altitude
Rises 05:19:45 0° 25° (NNE) 3,241 6.5 -18.0°
Reaches altitude 10° 05:22:30 10° 40° (NE) 2,309 5.9 -17.5°
Maximum altitude 05:26:34 24° 93° (E) 1,553 5.5 -16.8°
Drops below altitude 10° 05:30:37 10° 147° (SSE) 2,295 6.0 -16.1°
Sets 05:33:19 0° 161° (SSE) 3,215 6.6 -15.6°
